Location: D?uga
(50.2667°N, 19.7833°E)
Time: 00:50:16
(UTC+00:00)

CZ-2C R/B - Pass Details

Date: 23 May 2024
Orbit: 665 x 780 km, 98.4° (Epoch: 18 June)

Event Time Altitude Azimuth Distance (km) Brightness Sun altitude
Rises 01:31:27 0° 22° (NNE) 3,140 7.3 -9.4°
Reaches altitude 10° 01:34:04 10° 35° (NE) 2,194 6.5 -9.1°
Maximum altitude 01:38:10 28° 94° (E) 1,301 4.2 -8.7°
Drops below altitude 10° 01:42:10 10° 153° (SSE) 2,124 4.6 -8.2°
Sets 01:44:38 0° 165° (SSE) 3,020 5.3 -8.0°
